Location: Kawakawa
(35.3830°S, 174.0670°E)
Time: 13:52:23
(UTC+13:00)

Cosmos 1633 Rocket - Pass Details

Date: 24 January 2019
Orbit: 607 x 624 km, 82.5° (Epoch: 18 February)

Event Time Altitude Azimuth Distance (km) Brightness Sun altitude
Rises 22:10:34 0° 197° (SSW) 2,908 7.5 -16.9°
Reaches altitude 10° 22:12:55 10° 205° (SSW) 1,996 6.7 -17.3°
Maximum altitude 22:16:58 36° 271° (W) 979 4.5 -17.9°
Drops below altitude 10° 22:21:00 10° 338° (NNW) 1,978 5.4 -18.5°
Enters shadow 22:21:26 - 340° (NNW) 2,143 5.6 -18.6°
